DW7304 Weather Reports


Display with metric or nautical units.
time (UTC)temp
F
wind
direction
speed
MPH
gust
MPH
rain 1hr
in
rain 24hr
in
rain mn
in
humidity
%
barometer
mb
20260831053603 69 71 4.0 10.0 0.00 0.00 0.00 67 1012.9
20260831052703 68 71 2.0 8.0 0.00 0.00 0.00 67 1012.9
20260831051803 68 78 3.0 10.0 0.00 0.00 0.00 67 1012.8
20260831050903 68 66 4.0 8.0 0.00 0.00 0.00 67 1012.8
20260831050004 68 63 3.0 9.0 0.00 0.00 0.00 67 1012.9
20260831045403 68 64 4.0 8.0 0.00 0.00 0.00 67 1012.9
20260831044718 68 68 4.0 9.0 0.00 0.00 0.00 67 1012.8
20260831043603 68 70 4.0 9.0 0.00 0.00 0.00 67 1012.9
20260831042703 68 65 4.0 11.0 0.00 0.00 0.00 66 1012.8
20260831041803 68 70 5.0 14.0 0.00 0.00 0.00 66 1012.8
20260831041117 68 69 4.0 11.0 0.00 0.00 0.00 67 1012.9
20260831040217 68 65 5.0 11.0 0.00 0.00 0.00 66 1012.9
20260831035403 68 63 5.0 11.0 0.00 0.00 0.00 66 1012.8
20260831034718 68 61 5.0 11.0 0.00 0.00 0.00 66 1012.9
20260831033603 68 72 6.0 11.0 0.00 0.00 0.00 67 1012.9
20260831032918 68 75 7.0 13.0 0.00 0.00 0.00 67 1012.9
20260831031803 68 75 7.0 13.0 0.00 0.00 0.00 67 1012.9
20260831030903 68 77 8.0 12.0 0.00 0.00 0.00 68 1012.9
20260831030003 68 79 7.0 12.0 0.00 0.00 0.00 69 1013.0
20260831025403 67 80 6.0 12.0 0.00 0.00 0.00 69 1013.0
20260831024503 66 107 2.0 9.0 0.00 0.00 0.00 70 1013.1
20260831023603 67 214 1.0 3.0 0.00 0.00 0.00 69 1013.1
20260831022703 67 261 1.0 4.0 0.00 0.00 0.00 68 1013.2
20260831021803 68 332 1.0 4.0 0.00 0.00 0.00 67 1013.1
20260831021117 69 24 2.0 8.0 0.00 0.00 0.00 67 1013.2
20260831020218 69 32 2.0 6.0 0.00 0.00 0.00 67 1013.1
20260831015403 68 46 2.0 9.0 0.00 0.00 0.00 67 1013.2
20260831014503 69 46 3.0 9.0 0.00 0.00 0.00 66 1013.2
20260831013818 69 59 6.0 10.0 0.00 0.00 0.00 66 1013.2
20260831012703 69 72 8.0 14.0 0.00 0.00 0.00 66 1013.2
20260831011803 69 67 7.0 12.0 0.00 0.00 0.00 67 1013.2
20260831010903 69 65 6.0 13.0 0.00 0.00 0.00 67 1013.3
20260831010003 69 65 7.0 12.0 0.00 0.00 0.00 67 1013.3
20260831005403 69 71 7.0 13.0 0.00 0.00 0.00 67 1013.2
20260831004503 69 74 8.0 14.0 0.00 0.00 0.00 67 1013.2
20260831003818 69 73 9.0 15.0 0.00 0.00 0.00 66 1013.3
20260831002703 69 74 8.0 14.0 0.00 0.00 0.00 67 1013.5
20260831001803 69 72 8.0 12.0 0.00 0.00 0.00 66 1013.7
20260831000903 70 71 9.0 14.0 0.00 0.00 0.00 66 1013.6
20260831000004 70 71 9.0 17.0 0.00 0.00 0.00 66 1013.7
20260830235617 70 68 9.0 14.0 0.00 0.00 0.00 66 1013.8
20260830234503 70 75 9.0 13.0 0.00 0.00 0.00 67 1013.8
20260830232703 69 71 6.0 14.0 0.00 0.00 0.00 67 1013.9
20260830231803 69 70 7.0 13.0 0.00 0.00 0.00 66 1013.9
20260830230903 70 72 7.0 11.0 0.00 0.00 0.00 66 1013.9
20260830230004 69 70 6.0 10.0 0.00 0.00 0.00 66 1013.9
20260830225403 69 72 6.0 12.0 0.00 0.00 0.00 66 1014.0
20260830224718 70 68 7.0 12.0 0.00 0.00 0.00 66 1013.9
20260830223603 70 72 7.0 11.0 0.00 0.00 0.00 66 1014.0
20260830222703 70 71 7.0 11.0 0.00 0.00 0.00 65 1014.0
20260830221803 70 74 7.0 11.0 0.00 0.00 0.00 65 1014.0
20260830220903 70 75 8.0 12.0 0.00 0.00 0.00 65 1014.0
20260830220005 70 78 7.0 11.0 0.00 0.00 0.00 65 1014.0
20260830215403 70 76 6.0 10.0 0.00 0.00 0.00 65 1014.0
20260830214503 70 69 6.0 10.0 0.00 0.00 0.00 65 1014.0
20260830213603 70 71 6.0 10.0 0.00 0.00 0.00 64 1014.1
20260830212703 70 73 6.0 12.0 0.00 0.00 0.00 64 1014.1
20260830212017 70 74 6.0 11.0 0.00 0.00 0.00 64 1013.8
20260830210903 70 71 7.0 11.0 0.00 0.00 0.00 64 1013.8
20260830210003 70 68 7.0 11.0 0.00 0.00 0.00 64 1013.9
20260830205403 70 72 6.0 11.0 0.00 0.00 0.00 64 1013.8
20260830204503 70 74 6.0 9.0 0.00 0.00 0.00 63 1013.8
20260830203603 71 69 6.0 11.0 0.00 0.00 0.00 63 1014.0
20260830202703 71 74 6.0 11.0 0.00 0.00 0.00 62 1014.0
20260830201803 71 74 7.0 12.0 0.00 0.00 0.00 61 1014.0
20260830200903 72 75 7.0 12.0 0.00 0.00 0.00 61 1013.9
20260830200003 72 76 7.0 10.0 0.00 0.00 0.00 61 1013.9
20260830195403 72 76 8.0 13.0 0.00 0.00 0.00 61 1013.9
20260830194503 72 72 8.0 13.0 0.00 0.00 0.00 60 1014.0
20260830193818 72 72 8.0 14.0 0.00 0.00 0.00 60 1014.0
20260830192703 72 72 8.0 15.0 0.00 0.00 0.00 61 1013.9
20260830191803 72 74 7.0 12.0 0.00 0.00 0.00 61 1013.9
20260830191118 72 80 7.0 11.0 0.00 0.00 0.00 61 1013.8
20260830190004 72 81 7.0 13.0 0.00 0.00 0.00 61 1013.7
20260830185403 72 83 8.0 13.0 0.00 0.00 0.00 61 1013.7
20260830184503 72 81 7.0 14.0 0.00 0.00 0.00 61 1013.6
20260830183603 72 77 6.0 11.0 0.00 0.00 0.00 61 1013.5
20260830182917 72 75 5.0 10.0 0.00 0.00 0.00 61 1013.2
20260830181803 71 62 4.0 6.0 0.00 0.00 0.00 61 1013.2
20260830180903 72 63 4.0 6.0 0.00 0.00 0.00 59 1013.2
20260830180004 73 66 4.0 7.0 0.00 0.00 0.00 58 1013.1
20260830175403 73 57 3.0 6.0 0.00 0.00 0.00 58 1013.2
20260830174503 74 65 3.0 5.0 0.00 0.00 0.00 56 1013.1
20260830173603 76 71 2.0 4.0 0.00 0.00 0.00 54 1013.2
20260830172703 78 87 1.0 2.0 0.00 0.00 0.00 52 1013.2
20260830171803 79 112 0.0 2.0 0.00 0.00 0.00 51 1013.3
20260830170903 80 122 0.0 2.0 0.00 0.00 0.00 51 1013.2
20260830170004 80 223 0.0 3.0 0.00 0.00 0.00 49 1013.2
20260830165403 83 247 0.0 2.0 0.00 0.00 0.00 48 1013.2
20260830164503 83 284 0.0 3.0 0.00 0.00 0.00 48 1013.2
20260830163603 83 264 1.0 5.0 0.00 0.00 0.00 47 1013.2
20260830162703 83 267 0.0 4.0 0.00 0.00 0.00 47 1013.2
20260830161803 84 263 1.0 6.0 0.00 0.00 0.00 46 1013.3
20260830160903 84 280 1.0 3.0 0.00 0.00 0.00 46 1013.3
20260830160218 83 266 1.0 3.0 0.00 0.00 0.00 47 1013.5
20260830155403 83 300 0.0 2.0 0.00 0.00 0.00 47 1013.3
20260830154503 83 200 1.0 3.0 0.00 0.00 0.00 48 1013.3
20260830153818 81 181 2.0 4.0 0.00 0.00 0.00 47 1013.3
20260830152918 83 231 1.0 4.0 0.00 0.00 0.00 46 1013.3
20260830151803 82 237 3.0 6.0 0.00 0.00 0.00 47 1013.5
20260830150903 82 240 2.0 8.0 0.00 0.00 0.00 46 1013.5
20260830150003 83 266 1.0 6.0 0.00 0.00 0.00 46 1013.5
20260830145617 84 281 1.0 6.0 0.00 0.00 0.00 45 1013.5
20260830144503 84 281 2.0 4.0 0.00 0.00 0.00 45 1013.6
20260830143603 82 250 2.0 7.0 0.00 0.00 0.00 47 1013.7
20260830142703 82 240 4.0 9.0 0.00 0.00 0.00 46 1013.6
20260830141803 83 270 2.0 7.0 0.00 0.00 0.00 46 1013.7
20260830140903 82 98 2.0 5.0 0.00 0.00 0.00 47 1013.9
20260830140004 83 63 2.0 4.0 0.00 0.00 0.00 47 1013.9
20260830135404 83 65 2.0 5.0 0.00 0.00 0.00 47 1013.9
20260830134503 83 163 1.0 3.0 0.00 0.00 0.00 46 1014.0
20260830133603 84 47 1.0 6.0 0.00 0.00 0.00 47 1013.9
20260830132703 83 130 1.0 6.0 0.00 0.00 0.00 48 1014.0
20260830131803 82 259 1.0 4.0 0.00 0.00 0.00 48 1014.0
20260830130903 82 358 1.0 5.0 0.00 0.00 0.00 48 1014.0
20260830130004 82 26 2.0 6.0 0.00 0.00 0.00 47 1014.1
20260830125403 83 39 2.0 5.0 0.00 0.00 0.00 51 1014.4
20260830124503 81 268 2.0 5.0 0.00 0.00 0.00 50 1014.4
20260830123603 83 277 0.0 4.0 0.00 0.00 0.00 47 1014.3
20260830122703 84 11 1.0 4.0 0.00 0.00 0.00 47 1014.3
20260830121803 82 323 1.0 5.0 0.00 0.00 0.00 50 1014.4
20260830120903 79 292 0.0 2.0 0.00 0.00 0.00 51 1014.3
20260830120004 79 352 0.0 2.0 0.00 0.00 0.00 53 1014.2
20260830115403 79 335 0.0 2.0 0.00 0.00 0.00 52 1014.1
20260830114718 79 285 1.0 4.0 0.00 0.00 0.00 52 1014.2
20260830113603 77 280 1.0 5.0 0.00 0.00 0.00 54 1014.2
20260830112703 78 304 1.0 4.0 0.00 0.00 0.00 53 1014.4
20260830111803 78 309 1.0 4.0 0.00 0.00 0.00 54 1014.4
20260830110903 80 309 1.0 3.0 0.00 0.00 0.00 53 1014.3
20260830110004 79 314 1.0 5.0 0.00 0.00 0.00 54 1014.4
20260830105403 79 312 1.0 5.0 0.00 0.00 0.00 52 1014.5
20260830104503 81 347 2.0 6.0 0.00 0.00 0.00 52 1014.6
20260830103604 81 302 1.0 4.0 0.00 0.00 0.00 54 1014.6
20260830102703 80 353 1.0 4.0 0.00 0.00 0.00 53 1014.7
20260830101803 80 5 1.0 5.0 0.00 0.00 0.00 53 1014.7
20260830100903 79 59 2.0 6.0 0.00 0.00 0.00 55 1014.7
20260830100003 77 69 3.0 7.0 0.00 0.00 0.00 56 1014.7
20260830095618 77 87 4.0 8.0 0.00 0.00 0.00 56 1014.9
20260830094503 76 76 5.0 13.0 0.00 0.00 0.00 56 1014.9
20260830093603 77 74 5.0 9.0 0.00 0.00 0.00 57 1014.9
20260830092703 77 81 4.0 10.0 0.00 0.00 0.00 57 1014.9
20260830091803 76 82 4.0 11.0 0.00 0.00 0.00 58 1014.9
20260830090903 75 71 6.0 13.0 0.00 0.00 0.00 58 1014.9
20260830090004 75 66 6.0 13.0 0.00 0.00 0.00 59 1014.9
20260830085617 75 75 6.0 11.0 0.00 0.00 0.00 60 1014.9
20260830084503 74 73 8.0 15.0 0.00 0.00 0.00 61 1014.7
20260830083603 73 75 8.0 13.0 0.00 0.00 0.00 61 1014.7
20260830082917 73 75 9.0 14.0 0.00 0.00 0.00 61 1014.6
20260830082017 72 71 9.0 16.0 0.00 0.00 0.00 62 1014.7
20260830080903 72 70 10.0 17.0 0.00 0.00 0.00 62 1014.5
20260830080217 72 79 10.0 17.0 0.00 0.00 0.00 62 1014.6
20260830075403 71 75 11.0 16.0 0.00 0.00 0.00 63 1014.6
20260830074503 71 73 11.0 17.0 0.00 0.00 0.00 63 1014.6
20260830073817 71 76 10.0 16.0 0.00 0.00 0.00 64 1014.6
20260830072703 70 79 10.0 17.0 0.00 0.00 0.00 64 1014.4
20260830071803 70 75 10.0 16.0 0.00 0.00 0.00 65 1014.5
20260830070903 69 74 10.0 17.0 0.00 0.00 0.00 65 1014.3
20260830070004 69 74 10.0 17.0 0.00 0.00 0.00 65 1014.3
20260830065403 69 75 10.0 16.0 0.00 0.00 0.00 65 1014.3
20260830064503 68 68 10.0 19.0 0.00 0.00 0.00 66 1014.2
20260830063603 68 71 10.0 16.0 0.00 0.00 0.00 66 1014.1
20260830062916 68 72 11.0 18.0 0.00 0.00 0.00 66 1014.1
20260830061803 67 73 10.0 16.0 0.00 0.00 0.00 67 1014.2
20260830060903 67 72 9.0 17.0 0.00 0.00 0.00 67 1014.3
20260830060004 66 72 10.0 17.0 0.00 0.00 0.00 67 1014.2
20260830055618 66 65 9.0 17.0 0.00 0.00 0.00 68 1014.1
20260830054717 66 66 10.0 17.0 0.00 0.00 0.00 68 1014.1